[[{"header":{"parameterUnit":"m.s-1","parameterCategory":1,"la1":30.2991,"la2":30.254,"lo1":-89.0895,"lo2":-89.0444,"dy":0.0017,"dx":0.0017,"nx":28,"ny":28,"refTime":"2024-06-09T09:00:00:Z","depth":0,"parameterNumber":2,"parameterNumberName":"U-component_of_WINDS"},"data":[0,0,0,0,0,0,0,0,0,0,0,0,0,0,0,0,0,0,0,0,0,0,0,0,0,0,0,0,0,0,0,0,0,0,0,0,0,0,0,0,0,0,0,0,0,0,0,0,0,0,0,0,0,0,0,0,0,0,1.6682,1.6683,0,1.678,1.6781,1.6782,1.6834,1.6835,1.6835,1.6835,1.6936,1.6938,1.6941,0,0,0,0,0,0,0,0,0,0,0,0,0,1.6543,1.6545,1.6682,1.6683,1.6684,1.6779,1.6781,1.6782,1.6834,1.6835,1.6835,1.6835,1.6935,1.6938,1.6941,0,0,0,0,0,0,0,0,0,0,0,0,0,1.6618,1.6546,1.6682,1.6722,1.6727,1.6779,1.6781,1.6782,1.6834,1.6835,1.6835,1.6835,1.6934,1.6938,1.6942,1.6962,0,0,1.6953,1.6955,0,0,0,0,0,0,0,0,1.6614,1.6623,1.6715,1.6719,1.6724,1.6795,1.6769,1.6843,1.6834,1.6793,1.6835,1.6835,1.6889,1.6897,1.6915,1.6967,1.6971,1.6954,1.6956,1.6958,1.6959,0,0,0,0,0,0,0,1.6608,1.6619,1.6721,1.6716,1.6722,1.6736,1.6747,1.6783,1.6839,1.6797,1.6801,1.6812,1.6892,1.6911,1.6917,1.6973,1.6954,1.6957,1.696,1.6961,1.7048,1.7048,0,0,0,0,0,0,1.6597,1.6615,1.6718,1.6724,1.6668,1.6738,1.675,1.6772,1.6839,1.6849,1.6812,1.6814,1.6904,1.6913,1.6921,1.695,1.6958,1.6961,1.6964,1.7048,1.7048,1.7048,0,0,0,0,0,0,1.6593,1.6605,1.6714,1.667,1.6685,1.674,1.6765,1.6774,1.6793,1.685,1.686,1.6821,1.6904,1.6916,1.6952,1.6954,1.6963,1.6967,1.7048,1.7048,1.7048,1.7008,0,0,0,0,0,0,1.6589,1.6604,1.6612,1.667,1.6687,1.6742,1.6765,1.6776,1.68,1.6804,1.6861,1.6871,1.6905,1.6946,1.6956,1.696,1.697,1.7048,1.7048,1.7048,1.7009,1.7007,1.7004,0,0,0,0,0,1.6584,1.6596,1.6612,1.6624,1.6698,1.6742,1.6752,1.6791,1.6799,1.6808,1.6845,1.6869,1.6952,1.6949,1.6961,1.6966,1.7048,1.7048,1.7048,1.7011,1.7007,1.7004,0,0,0,0,0,0,1.6537,1.6605,1.6622,1.6654,1.6692,1.6751,1.6763,1.6786,1.6823,1.6825,1.6873,1.6885,1.6917,1.6945,1.694,1.699,1.7003,1.7005,1.697,1.6968,1.6965,1.6958,1.6973,0,0,0,0,0,1.653,1.656,1.6618,1.664,1.6658,1.6707,1.6728,1.6755,1.6796,1.6812,1.6852,1.6891,1.6926,1.6949,1.6984,1.7014,1.7028,1.7023,1.7021,1.7018,1.702,1.7039,1.7038,1.7048,1.7048,1.7048,0,0,1.6517,1.6558,1.6573,1.6632,1.6664,1.6694,1.672,1.6751,1.6774,1.6817,1.6854,1.6884,1.6931,1.6964,1.6981,1.6989,1.702,1.7018,1.7016,1.7019,1.7039,1.7038,1.7037,1.7048,1.7048,1.7048,0,0,1.6508,1.6541,1.6564,1.6596,1.6645,1.6678,1.6683,1.6739,1.676,1.6798,1.6831,1.686,1.6919,1.6952,1.6976,1.698,1.7004,1.699,1.6977,1.6995,1.6994,1.6994,1.6996,1.6996,1.6992,1.6992,1.6992,0,1.6485,1.6532,1.6573,1.6602,1.6627,1.6667,1.6691,1.672,1.6778,1.6795,1.6803,1.6879,1.6914,1.6956,1.6957,1.6975,1.6983,1.6984,1.6991,1.6991,1.6991,1.6994,1.6994,1.699,1.699,1.699,1.699,0,1.6502,1.6533,1.6546,1.6601,1.6627,1.6653,1.6699,1.6721,1.6746,1.6778,1.6816,1.686,1.6905,1.6917,1.6941,1.6962,1.6966,1.6982,1.6996,1.6987,1.6991,1.6992,1.6987,1.6988,1.6988,1.6989,0,0,1.6466,1.6543,1.6547,1.6573,1.663,1.6656,1.6684,1.6729,1.6747,1.6786,1.6811,1.6861,1.6876,1.6904,1.6933,1.6948,1.695,1.6962,1.6964,1.6959,1.6976,1.6964,1.6965,1.6966,1.6966,1.6966,1.6973,0,1.6465,1.6518,1.6556,1.6594,1.6625,1.6664,1.6689,1.6727,1.6758,1.6788,1.6823,1.6857,1.6875,1.6892,1.6909,1.6946,1.6954,1.6946,1.6991,1.6992,1.6978,1.6966,1.6954,1.6957,1.6974,1.6974,1.6975,0,1.6472,1.6509,1.655,1.6605,1.6619,1.6641,1.6685,1.6713,1.6758,1.6779,1.681,1.684,1.6873,1.6883,1.6929,1.6923,1.6944,1.6965,1.6966,1.6972,1.6983,1.6972,1.6959,1.696,1.6977,1.6977,1.6977,0,1.6442,1.6503,1.6535,1.6556,1.6621,1.6635,1.6663,1.6707,1.6732,1.677,1.6787,1.6829,1.6852,1.6884,1.6924,1.6928,1.6967,1.6981,1.6986,1.6985,1.6992,1.6991,1.6983,1.7005,1.7005,1.7005,1.7005,0,1.6438,1.6462,1.6523,1.6543,1.6571,1.6615,1.6642,1.6673,1.6713,1.674,1.6776,1.6801,1.6853,1.6885,1.6917,1.695,1.696,1.6979,1.6988,1.6976,1.6974,1.6991,1.6992,1.7005,1.7005,1.7005,1.7005,0,1.641,1.6452,1.649,1.6548,1.6563,1.6581,1.6631,1.6653,1.6685,1.672,1.673,1.6782,1.6821,1.6865,1.6918,1.694,1.6972,1.6984,1.6957,1.6961,1.6965,1.6964,1.6967,1.697,1.6989,1.6989,1.6988,0,1.6404,1.6424,1.6484,1.6504,1.6531,1.6564,1.6589,1.6634,1.6658,1.6711,1.6726,1.6768,1.6804,1.6864,1.6907,1.6949,1.6962,1.696,1.6968,1.6957,1.6963,1.6961,1.6963,1.6958,1.6957,1.6957,1.6957,0,1.6391,1.6411,1.6445,1.6487,1.6516,1.6552,1.6588,1.6603,1.6656,1.6682,1.6722,1.675,1.6804,1.6846,1.6893,1.6922,1.6948,1.6954,1.6957,1.6946,1.693,1.6939,1.695,1.6953,1.6954,1.6954,1.6954,1.6954,1.6375,1.6394,1.6439,1.6477,1.6509,1.6543,1.6566,1.6602,1.6636,1.6684,1.6708,1.6748,1.6793,1.6859,1.6887,1.692,1.6928,1.6933,1.6935,1.6935,1.6932,1.6924,1.6928,1.6929,1.6929,1.6929,1.6929,0,1.6363,1.6395,1.6429,1.6479,1.6509,1.653,1.6573,1.6596,1.6631,1.667,1.6705,1.6751,1.6792,1.6838,1.6881,1.6899,1.6912,1.6909,1.6908,1.6914,1.6922,1.6915,1.6897,1.6897,1.6897,1.6897,1.6897,1.6897,1.6361,1.6395,1.642,1.6471,1.6502,1.6541,1.6564,1.6595,1.6627,1.6677,1.6711,1.6741,1.6783,1.683,1.6868,1.6881,1.6896,1.6889,1.6905,1.6911,1.6914,1.6916,1.691,1.6891,1.6891,1.6895,1.6895,1.6895]},{"header":{"parameterUnit":"m.s-1","parameterCategory":1,"la1":30.2991,"la2":30.254,"lo1":-89.0895,"lo2":-89.0444,"dy":0.0017,"dx":0.0017,"nx":28,"ny":28,"refTime":"2024-06-09T09:00:00:Z","depth":0,"parameterNumber":3,"parameterNumberName":"V-component_of_WINDS"},"data":[0,0,0,0,0,0,0,0,0,0,0,0,0,0,0,0,0,0,0,0,0,0,0,0,0,0,0,0,0,0,0,0,0,0,0,0,0,0,0,0,0,0,0,0,0,0,0,0,0,0,0,0,0,0,0,0,0,0,-0.1894,-0.1894,0,-0.189,-0.189,-0.189,-0.1888,-0.1888,-0.1888,-0.1888,-0.1884,-0.1883,-0.1883,0,0,0,0,0,0,0,0,0,0,0,0,0,-0.1902,-0.1902,-0.1894,-0.1894,-0.1894,-0.189,-0.189,-0.189,-0.1888,-0.1888,-0.1888,-0.1888,-0.1884,-0.1883,-0.1883,0,0,0,0,0,0,0,0,0,0,0,0,0,-0.1898,-0.1902,-0.1894,-0.1893,-0.1893,-0.189,-0.189,-0.189,-0.1888,-0.1888,-0.1888,-0.1888,-0.1884,-0.1883,-0.1883,-0.1881,0,0,-0.1883,-0.1883,0,0,0,0,0,0,0,0,-0.1899,-0.1898,-0.1893,-0.1893,-0.1893,-0.189,-0.1891,-0.1887,-0.1888,-0.189,-0.1888,-0.1888,-0.1886,-0.1885,-0.1884,-0.1881,-0.1881,-0.1883,-0.1882,-0.1882,-0.1882,0,0,0,0,0,0,0,-0.1899,-0.1898,-0.1892,-0.1893,-0.1893,-0.1893,-0.1892,-0.189,-0.1888,-0.189,-0.189,-0.1889,-0.1885,-0.1884,-0.1884,-0.1881,-0.1883,-0.1882,-0.1882,-0.1882,-0.1878,-0.1878,0,0,0,0,0,0,-0.1899,-0.1898,-0.1893,-0.1892,-0.1896,-0.1893,-0.1892,-0.1891,-0.1888,-0.1887,-0.1889,-0.1889,-0.1885,-0.1884,-0.1884,-0.1883,-0.1882,-0.1882,-0.1882,-0.1878,-0.1878,-0.1878,0,0,0,0,0,0,-0.1899,-0.1899,-0.1893,-0.1895,-0.1895,-0.1892,-0.1891,-0.189,-0.1889,-0.1887,-0.1887,-0.1889,-0.1885,-0.1884,-0.1883,-0.1883,-0.1882,-0.1882,-0.1878,-0.1878,-0.1878,-0.188,0,0,0,0,0,0,-0.19,-0.1899,-0.1898,-0.1895,-0.1894,-0.1891,-0.1891,-0.189,-0.1889,-0.1889,-0.1887,-0.1886,-0.1885,-0.1883,-0.1882,-0.1882,-0.1882,-0.1878,-0.1878,-0.1878,-0.188,-0.188,-0.188,0,0,0,0,0,-0.19,-0.1898,-0.1898,-0.1897,-0.1893,-0.1891,-0.1891,-0.1889,-0.1889,-0.1888,-0.1887,-0.1886,-0.1883,-0.1883,-0.1882,-0.1882,-0.1878,-0.1878,-0.1878,-0.188,-0.188,-0.188,0,0,0,0,0,0,-0.19,-0.1898,-0.1897,-0.1894,-0.1893,-0.1891,-0.189,-0.1889,-0.1888,-0.1888,-0.1886,-0.1885,-0.1884,-0.1883,-0.1883,-0.1881,-0.188,-0.188,-0.1882,-0.1882,-0.1882,-0.1883,-0.1882,0,0,0,0,0,-0.19,-0.1898,-0.1896,-0.1894,-0.1893,-0.1892,-0.1891,-0.189,-0.1888,-0.1888,-0.1886,-0.1885,-0.1884,-0.1883,-0.1881,-0.188,-0.188,-0.188,-0.188,-0.188,-0.188,-0.188,-0.1881,-0.1878,-0.1878,-0.1878,0,0,-0.1899,-0.1897,-0.1896,-0.1894,-0.1893,-0.1892,-0.1891,-0.1889,-0.1889,-0.1887,-0.1886,-0.1885,-0.1883,-0.1882,-0.1881,-0.1881,-0.1881,-0.188,-0.188,-0.188,-0.188,-0.1881,-0.1881,-0.1878,-0.1878,-0.1878,0,0,-0.1897,-0.1895,-0.1894,-0.1893,-0.1892,-0.1891,-0.1891,-0.1889,-0.1888,-0.1887,-0.1886,-0.1886,-0.1883,-0.1883,-0.1882,-0.1882,-0.1881,-0.1882,-0.1882,-0.1883,-0.1883,-0.1883,-0.1884,-0.1884,-0.1882,-0.1882,-0.1882,0,-0.1896,-0.1894,-0.1893,-0.1892,-0.1892,-0.1891,-0.189,-0.1889,-0.1887,-0.1887,-0.1887,-0.1885,-0.1884,-0.1883,-0.1883,-0.1882,-0.1883,-0.1882,-0.1883,-0.1883,-0.1883,-0.1884,-0.1885,-0.1882,-0.1882,-0.1882,-0.1882,0,-0.1894,-0.1893,-0.1892,-0.1891,-0.189,-0.1889,-0.1889,-0.1888,-0.1888,-0.1887,-0.1887,-0.1886,-0.1885,-0.1884,-0.1884,-0.1884,-0.1884,-0.1883,-0.1883,-0.1884,-0.1885,-0.1885,-0.1882,-0.1882,-0.1882,-0.1882,0,0,-0.1891,-0.1891,-0.189,-0.1891,-0.189,-0.1889,-0.1889,-0.1888,-0.1888,-0.1887,-0.1887,-0.1886,-0.1886,-0.1885,-0.1885,-0.1885,-0.1887,-0.1885,-0.1885,-0.1886,-0.1889,-0.1889,-0.189,-0.1887,-0.1887,-0.1887,-0.1889,0,-0.189,-0.1889,-0.1889,-0.1888,-0.1888,-0.1888,-0.1888,-0.1888,-0.1888,-0.1888,-0.1887,-0.1887,-0.1886,-0.1886,-0.1887,-0.1887,-0.1887,-0.1886,-0.1887,-0.1887,-0.1888,-0.189,-0.189,-0.1893,-0.1889,-0.1889,-0.1889,0,-0.1888,-0.1888,-0.1887,-0.1888,-0.1888,-0.1888,-0.1888,-0.1888,-0.1888,-0.1888,-0.1888,-0.1888,-0.1888,-0.1888,-0.1889,-0.1888,-0.1889,-0.1889,-0.1889,-0.1889,-0.1888,-0.1891,-0.1893,-0.1894,-0.189,-0.189,-0.189,0,-0.1887,-0.1887,-0.1887,-0.1887,-0.1887,-0.1887,-0.1888,-0.1888,-0.1888,-0.1889,-0.1889,-0.1889,-0.189,-0.189,-0.189,-0.189,-0.1892,-0.1891,-0.1892,-0.1892,-0.1893,-0.1893,-0.1896,-0.1892,-0.1892,-0.1892,-0.1892,0,-0.1886,-0.1886,-0.1887,-0.1887,-0.1887,-0.1887,-0.1888,-0.1888,-0.1889,-0.1889,-0.1889,-0.189,-0.189,-0.1891,-0.1891,-0.1893,-0.1893,-0.1893,-0.1893,-0.1893,-0.1893,-0.1894,-0.1894,-0.1892,-0.1892,-0.1892,-0.1892,0,-0.1885,-0.1885,-0.1885,-0.1886,-0.1887,-0.1887,-0.1888,-0.1889,-0.1889,-0.189,-0.189,-0.1891,-0.1892,-0.1893,-0.1894,-0.1894,-0.1896,-0.1896,-0.1896,-0.1896,-0.1898,-0.1898,-0.1901,-0.1902,-0.1898,-0.1898,-0.1898,0,-0.1884,-0.1884,-0.1885,-0.1886,-0.1887,-0.1887,-0.1888,-0.1889,-0.1889,-0.1891,-0.1891,-0.1893,-0.1894,-0.1896,-0.1897,-0.1898,-0.1898,-0.1899,-0.1898,-0.1899,-0.1899,-0.1899,-0.19,-0.1899,-0.1899,-0.19,-0.19,0,-0.1883,-0.1884,-0.1885,-0.1886,-0.1887,-0.1888,-0.1889,-0.189,-0.1891,-0.1892,-0.1893,-0.1894,-0.1896,-0.1898,-0.1899,-0.19,-0.19,-0.19,-0.1901,-0.1901,-0.1901,-0.1902,-0.1897,-0.19,-0.19,-0.19,-0.19,-0.19,-0.1883,-0.1883,-0.1885,-0.1886,-0.1887,-0.1889,-0.189,-0.1891,-0.1892,-0.1894,-0.1895,-0.1897,-0.1898,-0.1901,-0.1902,-0.1903,-0.1903,-0.1904,-0.1904,-0.1904,-0.1905,-0.1901,-0.1904,-0.1904,-0.1904,-0.1904,-0.1904,0,-0.1882,-0.1884,-0.1885,-0.1887,-0.1889,-0.1889,-0.1891,-0.1892,-0.1894,-0.1895,-0.1897,-0.19,-0.1902,-0.1903,-0.1905,-0.1907,-0.1907,-0.1907,-0.1907,-0.1908,-0.1904,-0.1904,-0.1907,-0.1907,-0.1907,-0.1907,-0.1907,-0.1907,-0.1883,-0.1884,-0.1885,-0.1888,-0.1889,-0.1892,-0.1893,-0.1894,-0.1896,-0.1899,-0.1901,-0.1902,-0.1904,-0.1906,-0.1909,-0.1909,-0.191,-0.1911,-0.1911,-0.1908,-0.1908,-0.1907,-0.1907,-0.1911,-0.1911,-0.1915,-0.1915,-0.1915]}]]